This demonstration page uses our WeatherBlox Daily Observations layout. Learn more.

40.92945, -100.16068

Hourly Observations for July 22, 2015

Temp ( °F °C ) Dew Point ( °F °C ) Humidity (%) Winds ( mph kmh ) Pressure ( in mb ) Visibility ( mi km ) Precip ( " mm )
12:15 am 00:15 Clear 67 19.7 62 16.5 82 82 SSE 8 13 29.88 1012 10 16.0934 N/A
12:35 am 00:35 Clear 67 19.6 61 16.3 81 81 SSE 9 15 29.88 1012 10 16.0934 N/A
12:55 am 00:55 Clear 68 20 61 16.2 79 79 SE 9 15 29.88 1012 10 16.0934 N/A
1:15 am 01:15 Clear 68 19.8 61 16.1 79 79 SSE 8 13 29.88 1012 10 16.0934 N/A
1:35 am 01:35 Clear 68 19.8 61 16 79 79 SE 6 9 29.88 1012 10 16.0934 N/A
1:55 am 01:55 Clear 67 19.6 61 16 80 80 SSE 6 9 29.88 1012 10 16.0934 N/A
2:15 am 02:15 Clear 67 19.3 61 16 81 81 SE 8 13 29.91 1013 10 16.0934 N/A
2:35 am 02:35 Clear 67 19.5 60 15.8 79 79 SE 9 15 29.88 1012 10 16.0934 N/A
2:55 am 02:55 Clear 68 19.9 61 15.9 78 78 SSE 10 17 29.88 1012 10 16.0934 N/A
3:15 am 03:15 Clear 67 19.7 60 15.5 77 77 SSE 8 13 29.85 1011 10 16.0934 N/A
3:35 am 03:35 Clear 67 19.5 60 15.5 78 78 S 8 13 29.88 1012 10 16.0934 N/A
3:55 am 03:55 Clear 67 19.2 60 15.7 80 80 SSE 6 9 29.91 1013 10 16.0934 N/A
4:15 am 04:15 Partly Cloudy 67 19.2 60 15.8 81 81 SSE 9 15 29.91 1013 10 16.0934 N/A
4:35 am 04:35 Partly Cloudy 66 19 61 16 83 83 SSE 9 15 29.91 1013 10 16.0934 N/A
4:55 am 04:55 Mostly Cloudy 66 19 61 16 83 83 SSE 6 9 29.91 1013 10 16.0934 N/A
5:15 am 05:15 Partly Cloudy 66 19 61 16 83 83 SE 6 9 29.88 1012 10 16.0934 N/A
5:35 am 05:35 Partly Cloudy 66 19 61 16 83 83 SSE 8 13 29.88 1012 10 16.0934 N/A
5:55 am 05:55 Partly Cloudy 66 18.7 61 16.1 85 85 SSE 6 9 29.88 1012 10 16.0934 N/A
6:15 am 06:15 Mostly Cloudy 66 18.7 61 16.1 85 85 SSE 8 13 29.88 1012 10 16.0934 N/A
6:35 am 06:35 Cloudy 65 18.6 61 16.3 87 87 SE 7 11 29.88 1012 10 16.0934 N/A
6:55 am 06:55 Cloudy 66 18.7 61 16.3 86 86 SE 8 13 29.91 1013 10 16.0934 N/A
7:15 am 07:15 Cloudy 66 18.8 62 16.4 86 86 SE 8 13 29.91 1013 10 16.0934 N/A
7:35 am 07:35 Cloudy with Rain 66 19 62 16.6 86 86 SSE 9 15 29.91 1013 10 16.0934 N/A
7:55 am 07:55 Mostly Cloudy 66 19 63 17 88 88 SE 10 17 29.88 1012 10 16.0934 N/A
8:15 am 08:15 Mostly Cloudy 67 19.2 63 17.1 88 88 SE 10 17 29.91 1013 10 16.0934 N/A
8:35 am 08:35 Cloudy 67 19.5 63 17.3 87 87 SE 12 19 29.88 1012 10 16.0934 N/A
8:55 am 08:55 Cloudy with Light Drizzle 67 19.5 64 17.6 89 89 SE 12 19 29.88 1012 10 16.0934 N/A
9:15 am 09:15 Cloudy 67 19.7 65 18.1 91 91 SE 12 19 29.88 1012 10 16.0934 N/A
9:35 am 09:35 Cloudy 67 19.7 65 18.1 91 91 SSE 7 11 29.88 1012 10 16.0934 N/A
9:55 am 09:55 Cloudy 70 20.9 66 18.8 88 88 SE 10 17 29.85 1011 10 16.0934 N/A
10:10 am 10:10 Cloudy 69 20.8 66 18.7 88 88 SSE 12 19 29.85 1011 10 16.0934 N/A
10:35 am 10:35 Cloudy 69 20.5 65 18.4 88 88 SSE 14 22 29.85 1011 10 16.0934 N/A
10:55 am 10:55 Cloudy 71 21.6 66 19.1 86 86 SSE 13 20 29.85 1011 10 16.0934 N/A
11:15 am 11:15 Cloudy 70 21.3 66 19 87 87 SSE 13 20 29.85 1011 10 16.0934 N/A
11:35 am 11:35 Cloudy with Nearby Thunderstorms 71 21.6 67 19.2 86 86 S 13 20 29.85 1011 10 16.0934 N/A
11:55 am 11:55 Cloudy 71 21.8 67 19.3 86 86 S 12 19 29.85 1011 10 16.0934 N/A
12:15 pm 12:15 Cloudy 73 22.5 67 19.5 83 83 S 12 19 29.83 1010 10 16.0934 N/A
12:35 pm 12:35 Cloudy 74 23.5 68 19.8 80 80 SE 12 19 29.83 1010 10 16.0934 N/A
12:55 pm 12:55 Cloudy 76 24.6 68 20 76 76 SSE 10 17 29.83 1010 10 16.0934 N/A
1:15 pm 13:15 Cloudy with Nearby Thunderstorms 76 24.7 68 20.1 76 76 SSE 10 17 29.83 1010 10 16.0934 N/A
1:35 pm 13:35 Cloudy 76 24.5 68 19.9 76 76 S 8 13 29.83 1010 10 16.0934 N/A
1:55 pm 13:55 Cloudy 78 25.4 68 19.8 71 71 SSE 9 15 29.83 1010 10 16.0934 N/A
2:15 pm 14:15 Cloudy 76 24.6 67 19.5 73 73 ESE 8 13 29.83 1010 10 16.0934 N/A
2:35 pm 14:35 Cloudy 75 23.9 67 19.6 77 77 E 8 13 29.8 1009 10 16.0934 N/A
2:55 pm 14:55 Cloudy 76 24.3 68 20.2 78 78 ESE 8 13 29.8 1009 10 16.0934 N/A
3:15 pm 15:15 Cloudy 77 25 69 20.6 77 77 ESE 8 13 29.8 1009 10 16.0934 N/A
3:35 pm 15:35 Mostly Cloudy 80 26.5 68 20.1 68 68 SE 9 15 29.77 1008 10 16.0934 N/A
3:55 pm 15:55 Mostly Cloudy 80 26.9 69 20.5 68 68 SE 12 19 29.77 1008 10 16.0934 N/A
4:15 pm 16:15 Mostly Cloudy 80 26.7 68 20 67 67 SE 12 19 29.77 1008 10 16.0934 N/A
4:35 pm 16:35 Mostly Cloudy 80 26.8 68 20 66 66 SSE 9 15 29.77 1008 10 16.0934 N/A
4:55 pm 16:55 Partly Cloudy 82 27.6 69 20.4 65 65 SSE 15 24 29.74 1007 10 16.0934 N/A
5:15 pm 17:15 Sunny 82 28 69 20.4 63 63 SE 15 24 29.74 1007 10 16.0934 N/A
5:35 pm 17:35 Sunny 83 28.2 68 19.9 61 61 SSE 14 22 29.74 1007 10 16.0934 N/A
5:55 pm 17:55 Partly Cloudy 83 28.3 67 19.7 60 60 SSE 14 22 29.74 1007 10 16.0934 N/A
6:15 pm 18:15 Sunny 83 28.5 67 19.5 58 58 SSE 13 20 29.68 1005 10 16.0934 N/A
6:35 pm 18:35 Sunny 83 28.5 68 19.8 59 59 SE 13 20 29.68 1005 10 16.0934 N/A
6:55 pm 18:55 Sunny 83 28.5 68 19.8 59 59 ESE 13 20 29.68 1005 10 16.0934 N/A
7:15 pm 19:15 Partly Cloudy 82 27.5 67 19.7 63 63 SE 12 19 29.74 1007 10 16.0934 N/A
7:35 pm 19:35 Mostly Cloudy 82 27.7 67 19.7 62 62 SE 12 19 29.74 1007 10 16.0934 N/A
7:55 pm 19:55 Partly Cloudy 82 27.5 67 19.5 62 62 SE 13 20 29.74 1007 10 16.0934 N/A
8:15 pm 20:15 Sunny 81 27 67 19.5 64 64 SE 10 17 29.74 1007 10 16.0934 N/A
8:35 pm 20:35 Partly Cloudy 80 26.4 67 19.7 67 67 ESE 10 17 29.74 1007 10 16.0934 N/A
8:55 pm 20:55 Partly Cloudy 78 25.5 68 19.9 71 71 ESE 12 19 29.74 1007 10 16.0934 N/A
9:15 pm 21:15 Clear 76 24.7 68 19.8 74 74 SE 13 20 29.77 1008 10 16.0934 N/A
9:35 pm 21:35 Clear 76 24.2 68 19.8 77 77 ESE 10 17 29.77 1008 10 16.0934 N/A
9:55 pm 21:55 Clear 75 24 68 19.9 78 78 ESE 10 17 29.8 1009 10 16.0934 N/A
10:15 pm 22:15 Clear 74 23.5 68 19.8 80 80 SE 9 15 29.8 1009 10 16.0934 N/A
10:35 pm 22:35 Clear 74 23.1 68 19.8 82 82 SE 10 17 29.8 1009 10 16.0934 N/A
10:55 pm 22:55 Clear 73 22.8 68 19.8 83 83 SE 9 15 29.8 1009 10 16.0934 N/A
11:15 pm 23:15 Clear 73 22.6 68 19.8 84 84 SE 12 19 29.8 1009 10 16.0934 N/A
11:35 pm 23:35 Clear 73 22.5 68 19.8 85 85 SE 13 20 29.8 1009 10 16.0934 N/A
11:55 pm 23:55 Clear 72 22.4 68 19.8 85 85 SE 12 19 29.83 1010 10 16.0934 N/A

Powered by AerisWeather